Weather in Jeonju

South Korea     35°49′44″N   127°08′49″E
temp.,
°C
wind,
m/s
gust,
m/s
humid.,
%
clouds,
%
prec.,
mm/h
press.,
hPa
HPBL,
m
27 october, wed
wed2700:00+9w0087100 0.0 102012
03:00+9nne0088100 0.0 102011
06:00+9se11922 0.0 102012
09:00+13ssw117599 0.0 1021207
12:00+16nw35550 0.0 10201259
15:00+16nw45370 0.0 10181370
18:00+10nw22620 0.0 102040
21:00+8n11660 0.0 102211
28 october, thu
thu2800:00+7ene11660 0.0 102210
03:00+6ene11700 0.0 102210
06:00+6ne11730 0.0 102311
09:00+11n13550 0.0 1024225
12:00+16nnw34350 0.0 1023881
15:00+17n23360 0.0 10211028
18:00+11nne115892 0.0 102311
21:00+9ese2262100 0.0 102516
29 october, fri
fri2900:00+8ese21739 0.0 102516
03:00+8ese1180100 0.0 102516
06:00+8e22889 0.0 102621
09:00+13e126998 0.0 1027238
12:00+18ne124999 0.0 10261151
15:00+18nw22458 0.0 10241686
18:00+12nw11704 0.0 102419
21:00+10ese1176100 0.0 102512
30 october, sat
sat3000:00+10se2177100 0.0 102619
03:00+9ese1177100 0.0 102615
06:00+9ese1176100 0.0 102513
09:00+13se1165100 0.0 1026169
12:00+16nnw1156100 0.0 1024734
15:00+16nw2255100 0.0 10231186
18:00+12nnw2274100 0.0 102431
21:00+11ne1179100 0.0 102515
31 october, sun
sun3100:00+9ene118392 0.0 102511
03:00+8ne11840 0.0 102412
06:00+7ene11870 0.0 102513
09:00+12nne12650 0.0 1025224
12:00+17n34415 0.0 10231060
15:00+18n3438100 0.0 10221259
18:00+12nnw226412 0.0 102216
21:00+11ne1166100 0.0 102412